Weather WX

World > North America > United States > Ohio

Waterville, Ohio Regional Weather

Lat: 41.50N, Lon: 83.73W
Wx Zone: OHZ003
Warning FLW WEATHER ALERT - FLASH FLOOD WATCH (More Info. Click Here) Warning
Feedback

Waterville, OH Regional Weather

Expires:201906201800;;794496
ASUS41 KCLE 201712
RWRCLE
OHIO REGIONAL WEATHER ROUNDUP
NATIONAL WEATHER SERVICE WILMINGTON, OH
100 PM EDT THU JUN 20 2019

NOTE: "FAIR" INDICATES FEW OR NO CLOUDS BELOW 12,000 FEET WITH NO
SIGNIFICANT WEATHER AND/OR OBSTRUCTIONS TO VISIBILITY.


OHZ001>008-015>018-024>027-034-035-043-044-201800-
   NORTHWEST OHIO
  
CITY           SKY/WX    TMP DP  RH WIND       PRES   REMARKS
DEFIANCE       RAIN      66  63  90 NE7       29.56R FOG              
FINDLAY        CLOUDY    76  68  76 SW16      29.53S                  
TOLEDO EXPRESS CLOUDY    66  62  87 E14       29.56S FOG              
TOLEDO EXEC    CLOUDY    66  64  93 NE10      29.58R                  
LIMA           CLOUDY    73  66  78 SW14G24   29.55S                  
$$
 

SKY/WX - Weather  TMP - Temperature  DP - Dew Point  RH - Relative Humidity
WIND - Wind Direction/Speed PRES - Barometric Pressure VSB - Visibility
WCI - Wind Chill Index E13G22 Wind - East Wind 13 mph/Gusts of 22 mph